TimeEDT,TemperatureF,Dew PointF,Humidity,Sea Level PressureIn,VisibilityMPH,Wind Direction,Wind SpeedMPH,Gust SpeedMPH,PrecipitationIn,Events,Conditions,WindDirDegrees,DateUTC
12:54 AM,55.0,41.0,59,30.09,10.0,WSW,6.9,-,N/A,,Clear,250,2012-03-14 04:54:00
1:54 AM,53.1,42.1,66,30.09,10.0,West,8.1,-,N/A,,Clear,260,2012-03-14 05:54:00
2:54 AM,51.1,42.1,71,30.11,10.0,West,8.1,-,N/A,,Clear,280,2012-03-14 06:54:00
3:54 AM,50.0,41.0,71,30.10,10.0,WNW,12.7,-,N/A,,Clear,300,2012-03-14 07:54:00
4:54 AM,48.0,34.0,58,30.11,10.0,WNW,10.4,-,N/A,,Clear,300,2012-03-14 08:54:00
5:54 AM,46.9,33.1,59,30.13,10.0,West,6.9,-,N/A,,Clear,280,2012-03-14 09:54:00
6:54 AM,45.0,33.1,63,30.16,10.0,West,6.9,-,N/A,,Clear,280,2012-03-14 10:54:00
7:54 AM,46.0,34.0,63,30.19,10.0,West,6.9,-,N/A,,Clear,270,2012-03-14 11:54:00
8:54 AM,48.0,35.1,61,30.20,10.0,West,6.9,-,N/A,,Clear,260,2012-03-14 12:54:00
9:54 AM,51.1,32.0,48,30.22,10.0,WSW,5.8,-,N/A,,Clear,240,2012-03-14 13:54:00
10:54 AM,54.0,28.0,37,30.22,10.0,WSW,4.6,-,N/A,,Clear,250,2012-03-14 14:54:00
11:54 AM,59.0,25.0,27,30.22,10.0,NW,9.2,-,N/A,,Clear,310,2012-03-14 15:54:00
12:54 PM,63.0,30.9,30,30.21,10.0,WNW,10.4,18.4,N/A,,Clear,290,2012-03-14 16:54:00
1:54 PM,64.0,36.0,35,30.20,10.0,WSW,11.5,21.9,N/A,,Clear,250,2012-03-14 17:54:00
2:54 PM,66.0,42.1,42,30.19,10.0,WNW,16.1,23.0,N/A,,Clear,300,2012-03-14 18:54:00
3:54 PM,66.9,37.9,34,30.18,10.0,West,11.5,20.7,N/A,,Clear,280,2012-03-14 19:54:00
4:54 PM,66.9,37.0,33,30.17,10.0,West,13.8,-,N/A,,Clear,270,2012-03-14 20:54:00
5:54 PM,66.9,37.9,34,30.18,10.0,WNW,11.5,-,N/A,,Clear,290,2012-03-14 21:54:00
6:54 PM,64.0,39.9,41,30.19,10.0,WNW,6.9,-,N/A,,Clear,290,2012-03-14 22:54:00
7:54 PM,61.0,39.9,46,30.20,10.0,Calm,Calm,-,N/A,,Clear,0,2012-03-14 23:54:00
8:54 PM,61.0,39.9,46,30.20,10.0,Calm,Calm,-,N/A,,Clear,0,2012-03-15 00:54:00
9:54 PM,63.0,39.9,43,30.20,10.0,Calm,Calm,-,N/A,,Clear,0,2012-03-15 01:54:00
10:54 PM,59.0,39.9,49,30.20,10.0,SSW,4.6,-,N/A,,Clear,200,2012-03-15 02:54:00
11:54 PM,57.9,39.9,51,30.19,10.0,SW,4.6,-,N/A,,Clear,230,2012-03-15 03:54:00